Content
SEND FEEDBACK

Daily
Averages
Monthly
Summary
United States of America

YIGO, GUAM


Home > North America > United States > Guam
Elevation: 530 feet     Latitude: 13 32N     Longitude: 144 53E

WEATHER
 
SELECT A DAY
Number of Records: 213,057;   Date Range: 1/1/95 - 9/29/14
 
SHARE

PRINT THIS DATA

[ ← Previous Day ]
WEATHER ALMANAC - JULY 2, 2014
[ Next Day → ]
[ °C ]   °F
Weather ElementAverageHighLow
Temperature85.7 °F90 °F (12:54 pm)80.1 °F (2:54 am)
Dewpoint78.7 °F82.4 °F (12:10 pm)77 °F (2:54 am)
Humidity79.7 %91 % (1:54 am)70 % (12:54 pm)
Barometer29.76 in29.81 in (9:22 am)29.69 in (6:54 pm)
Wind Speed8.4 mph13.8 mph (1:18 pm)
Wind Gust20.7 mph (12:01 pm)
Weather ElementAverage
Visibility9.6 mi
Wind DirectionENE (65.9 °)

Weather ElementTotal
Precipitation0.30 in
Cooling Degree Days20.1 (Base 65)
Growing Degree Days35.1 (Base 50)
Averaged from 39 records on July 2, 2014
WEATHER CONDITIONS BREAKOUT
WIND DIRECTION BREAKOUT
WEATHER BY HOUR - JULY 2, 2014
[ °C ]   °F
Local TimeTemperatureDewpointHumidityBarometerVisibilityWind DirectionWind SpeedGust SpeedPrecipitationEventsConditions
1:54 AM81.0 °F78.1 °F91 %29.78 in10.0 miCalmClear
2:54 AM80.1 °F77.0 °F90 %29.77 in10.0 miCalmPartly Cloudy
3:54 AM81.0 °F77.0 °F88 %29.77 in10.0 miCalmClear
4:54 AM80.1 °F77.0 °F90 %29.76 in10.0 miNE (40°)5.8 mphClear
5:54 AM81.0 °F78.1 °F91 %29.76 in10.0 miCalmClear
6:54 AM82.9 °F78.1 °F85 %29.76 in10.0 miCalmClear
7:54 AM84.9 °F79.0 °F82 %29.80 in10.0 miNE (40°)6.9 mphClear
8:54 AM87.1 °F78.1 °F74 %29.78 in10.0 miNNE (30°)6.9 mphMostly Cloudy
9:22 AM86.0 °F78.8 °F79 %29.81 in10.0 miNNE (20°)6.9 mphMostly Cloudy
9:39 AM87.8 °F78.8 °F75 %29.81 in10.0 miNE (40°)6.9 mphScattered Clouds
9:54 AM88.0 °F79.0 °F75 %29.79 in10.0 miNorth (350°)6.9 mphMostly Cloudy
10:21 AM84.2 °F78.8 °F84 %29.80 in6.0 miNorth (10°)5.8 mph16.1 mph0.02 inRainLight Rain
10:47 AM87.8 °F80.6 °F79 %29.80 in10.0 miEast (80°)9.2 mph0.03 inMostly Cloudy
10:54 AM87.1 °F80.1 °F80 %29.78 in10.0 miENE (70°)9.2 mph0.03 inScattered Clouds
11:03 AM86.0 °F78.8 °F79 %29.79 in10.0 miNNE (20°)8.1 mphThunderstormThunderstorm
11:24 AM86.0 °F80.6 °F84 %29.79 in10.0 miNNW (340°)6.9 mph0.00 inScattered Clouds
11:54 AM84.9 °F80.1 °F85 %29.76 in10.0 miNorth (360°)12.7 mph19.6 mph0.00 inScattered Clouds
12:01 PM84.2 °F80.6 °F89 %29.78 in2.5 miNorth (10°)12.7 mph20.7 mph0.01 inRainRain
12:10 PM86.0 °F82.4 °F89 %29.77 in5.0 miNNE (30°)11.5 mph0.07 inRainLight Rain
12:31 PM87.8 °F78.8 °F75 %29.77 in10.0 miNE (40°)9.2 mph0.07 inMostly Cloudy
12:54 PM90.0 °F79.0 °F70 %29.74 in10.0 miENE (60°)8.1 mph0.07 inMostly Cloudy
1:09 PM87.8 °F78.8 °F75 %29.76 in10.0 miENE (60°)11.5 mphMostly Cloudy
1:18 PM87.8 °F78.8 °F75 %29.76 in10.0 miENE (70°)13.8 mphMostly Cloudy
1:27 PM87.8 °F78.8 °F75 %29.76 in10.0 miENE (60°)11.5 mphMostly Cloudy
1:39 PM87.8 °F78.8 °F75 %29.76 in10.0 miNE (50°)11.5 mphScattered Clouds
1:52 PM89.6 °F78.8 °F70 %29.75 in10.0 miENE (60°)11.5 mphMostly Cloudy
1:54 PM89.1 °F79.0 °F72 %29.73 in10.0 miENE (60°)11.5 mphMostly Cloudy
2:02 PM87.8 °F78.8 °F75 %29.75 in10.0 miNE (40°)11.5 mphMostly Cloudy
2:54 PM87.1 °F78.1 °F74 %29.71 in10.0 miNNE (30°)12.7 mphMostly Cloudy
3:03 PM87.8 °F78.8 °F75 %29.73 in10.0 miNNE (30°)13.8 mphPartly Cloudy
3:54 PM87.1 °F78.1 °F74 %29.70 in10.0 miENE (70°)10.4 mphPartly Cloudy
4:54 PM88.0 °F77.0 °F70 %29.70 in10.0 miENE (70°)10.4 mphPartly Cloudy
5:54 PM86.0 °F78.1 °F77 %29.70 in10.0 miNE (50°)10.4 mphScattered Clouds
6:54 PM84.0 °F78.1 °F82 %29.69 in10.0 miNE (40°)8.1 mphPartly Cloudy
7:54 PM84.0 °F78.1 °F82 %29.72 in10.0 miENE (70°)8.1 mphPartly Cloudy
8:54 PM84.0 °F78.1 °F82 %29.72 in10.0 miENE (70°)10.4 mphPartly Cloudy
9:54 PM84.0 °F79.0 °F85 %29.73 in10.0 miENE (60°)8.1 mph0.00 inPartly Cloudy
10:54 PM84.0 °F77.0 °F79 %29.73 in10.0 miENE (70°)9.2 mphPartly Cloudy
11:54 PM84.0 °F77.0 °F79 %29.71 in10.0 miENE (70°)8.1 mphPartly Cloudy
Hourly data recorded from PGUM, located miles away from Yigo, Guam







STORIES FROM OUR PARTNERS